Flag for Chile Weather past 2 weeks in Temuco, Chile

Now
57 °F

Light rain. Mostly cloudy.


Feels Like: 54 °F
Forecast: 53 / 59 °F
Wind: 16 mph from North

Location: Concepcion Airport

Current Time: Jun 1, 2015 at 11:04:06 PM

Latest Report: Jun 1, 2015 at 10:00 PM


Visibility: 4 mi

Pressure: 30.07 "Hg

Humidity: 94%

Dew point: 55 °F

Location of TemucoLocation

Historic Weather in Temuco — Graph

°F

Temuco temperature yesterday

Maximum temperature yesterday: 59 °F (at 2:00 PM)
Minimum temperature yesterday: 55 °F (at 12:00 AM)
Average temperature yesterday: 57 °F

Past Weeks' High & Low Weather Summary

 TemperatureHumidityPressure
High64 °F (May 18, 2:00 PM)100% (May 18, 2:00 AM)30.27 "Hg (May 18, 2:00 AM)
Low34 °F (May 25, 5:00 AM)48% (May 24, 3:00 PM)29.89 "Hg (May 19, 6:00 PM)
Average52 °F89%30.08 "Hg
* Reported May 17 10:00 PM — Jun 1 10:00 PM, Temuco, Weather by CustomWeather, © 2015

Note: Actual official high and low records may vary slightly from our data, if they occured in-between our weather recording intervals... More about our weather records

Advertising

Temuco weather history for previous 24 hours

 ConditionsComfort  
Time TempWeatherWind HumidityBarometerVisibility
10:00 PM
Mon, Jun 1
57 °FLight rain. Mostly cloudy.16 mph94%30.07 "Hg4 mi
9:00 PM57 °FLight rain. Mostly cloudy.17 mph100%30.09 "Hg4 mi
8:00 PM57 °FSprinkles. Mostly cloudy.17 mph100%30.09 "Hg4 mi
7:00 PM57 °FSprinkles. Mostly cloudy.16 mph94%30.07 "Hg5 mi
6:00 PM57 °FSprinkles. Mostly cloudy.20 mph100%30.07 "Hg2 mi
5:00 PM57 °FLight rain. Mostly cloudy.20 mph100%30.07 "Hg3 mi
4:00 PM57 °FSprinkles. Mostly cloudy.21 mph100%30.07 "Hg5 mi
3:00 PM57 °FRain showers. Mostly cloudy.20 mph94%30.07 "Hg2 mi
2:00 PM57 °FScattered showers. Mostly cloudy.16 mph94%30.09 "Hg4 mi
1:00 PM57 °FMostly cloudy.18 mph94%30.09 "HgN/A
12:00 PM57 °FMostly cloudy.21 mph94%30.09 "HgN/A
11:00 AM57 °FSprinkles. Mostly cloudy.22 mph94%30.09 "HgN/A
10:00 AM57 °FScattered showers. Mostly cloudy.20 mph100%30.09 "Hg5 mi
9:00 AM57 °FFog.15 mph100%30.09 "Hg5 mi
8:00 AM57 °FMostly cloudy.16 mph100%30.07 "Hg4 mi
7:00 AM57 °FMostly cloudy.16 mph100%30.09 "HgN/A
6:00 AM57 °FMostly cloudy.12 mph94%30.09 "HgN/A
5:00 AM57 °FSprinkles. Mostly cloudy.13 mph100%30.09 "HgN/A
4:00 AM57 °FMostly cloudy.15 mph94%30.09 "HgN/A
3:00 AM57 °FMostly cloudy.13 mph94%30.09 "HgN/A
2:00 AM57 °FSprinkles. Mostly cloudy.15 mph94%30.09 "HgN/A
1:00 AM57 °FMostly cloudy.16 mph94%30.09 "HgN/A
12:00 AM57 °FMostly cloudy.18 mph94%30.09 "HgN/A
11:00 PM
Sun, May 31
57 °FSprinkles. Mostly cloudy.17 mph94%30.09 "Hg5 mi
Weather by CustomWeather, © 2015

See weather overviewHow to use our weather pages